Weather in Yagodnoye

Russia / Republic of Buryatia     51°24′07″N   106°30′28″E
temp.,
°C
wind,
m/s
gust,
m/s
humid.,
%
clouds,
%
prec.,
mm/h
press.,
hPa
HPBL,
m
17 april, sat
sat1723:00−3w115822 0.0 101710
02:00−4wsw216311 0.0 101611
05:00−4wsw11695 0.0 101511
08:00+1s2253100 0.0 1013163
11:00+7s33445 0.0 1009463
14:00+11s22365 0.0 1006786
17:00+12sse12335 0.0 1003684
20:00+4nnw22609 0.0 100413
18 april, sun
sun1823:00+5nw8165972 0.0 1006536
02:00−2nw122088100 0.8 1012892
05:00−5nw91784100 0.5 10171005
08:00−5nw8148098 0.8 10221051
11:00−2nw7116381 0.3 10241314
14:00−1nnw684730 0.3 10231362
17:000n34400 0.0 10221172
20:00−4n115598 0.0 102311
19 april, mon
mon1923:00−5se115792 0.0 102313
02:00−6s11555 0.0 102212
05:00−7s11526 0.0 102112
08:00−2sse2333100 0.0 1019265
11:00+4s45305 0.0 1015650
14:00+8s35330 0.0 1010893
17:00+11s463364 0.0 1005954
20:00+4ne00538 0.0 100510
20 april, tue
tue2023:00+3wnw115956 0.0 100510
02:00+1nw515726 0.0 1009392
05:00−1nw5149196 0.1 1012707
08:00−2nnw4770100 0.3 1014712
11:00+1nnw345231 0.0 1014763
14:00+5nnw32456 0.0 1011987
17:00+6nnw224923 0.0 1009908
20:00−1nnw34725 0.0 101199
21 april, wed
wed2123:00−3nw346559 0.0 1012112
02:00−5nw49786 0.0 1014480
05:00−6nnw498731 0.1 1015531
08:00−3nnw5107186 0.2 1015834
11:00−1nnw696192 0.1 10161011
14:000nnw6960100 0.3 10151148
17:00−2nnw71265100 0.3 10181143
20:00−5nnw51279100 1.4 10221020